International Skating Union - Official Site

ESSENT ISU WORLD DISTANCES CHAMPIONSHIPS 2012
March 22-25, 2012

Draw | Lap Times | Index | World Cup

Referee: Susan  SANDVIG-SHOBE  (USA)
Starter: Yves  BELANGER  (CAN)
StartTime: EndTime: Air Temp: Ice Temp: Humidity:
16:39 16:58
Result Team Pursuit Ladies
Rankings as of Mar 25 2012 5:44PM
Rank: No.: Team: Nation: Time: Behind: Points:
Total 8
1 6 Netherlands (55) Ireen WÜST (51) Diane VALKENBURG (53) Linda de VRIES (0)   NED NED 2:59.700.5 - 18.52 - (18.5)
1.0 - 32.63 - (14.1)
1.5 - 46.49 - (13.8)
2.0 - 1:00.77 - (14.2)
2.5 - 1:14.81 - (14.0)
3.0 - 1:29.33 - (14.5)
3.5 - 1:44.05 - (14.7)
4.0 - 1:58.83 - (14.7)
4.5 - 2:14.08 - (15.2)
5.0 - 2:29.17 - (15.0)
5.5 - 2:44.22 - (15.0)
6.0 - 2:59.70 - (15.2)
2 1 Canada (12) Brittany SCHUSSLER (10) Christine NESBITT (9) Cindy KLASSEN (0)   CAN CAN 3:00.510.5 - 18.71 - (18.7)
1.0 - 32.56 - (13.8)
1.5 - 46.38 - (13.8)
2.0 - 1:00.53 - (14.1)
2.5 - 1:14.86 - (14.3)
3.0 - 1:29.53 - (14.6)
3.5 - 1:44.36 - (14.8)
4.0 - 1:59.31 - (14.9)
4.5 - 2:14.27 - (14.9)
5.0 - 2:29.55 - (15.2)
5.5 - 2:44.70 - (15.1)
6.0 - 3:00.51 - (15.6)
0.81
3 4 Poland (59) Natalia CZERWONKA (61) Katarzyna WOZNIAK (62) Luiza ZLOTKOWSKA (0)   POL POL 3:03.320.5 - 19.09 - (19.0)
1.0 - 33.37 - (14.2)
1.5 - 47.59 - (14.2)
2.0 - 1:02.10 - (14.5)
2.5 - 1:16.57 - (14.4)
3.0 - 1:31.36 - (14.8)
3.5 - 1:46.17 - (14.8)
4.0 - 2:00.90 - (14.7)
4.5 - 2:15.85 - (14.9)
5.0 - 2:31.41 - (15.5)
5.5 - 2:46.98 - (15.5)
6.0 - 3:03.32 - (16.0)
3.62
4 2 Russia (67) Yekaterina LOBYSHEVA (68) Yekaterina SHIKHOVA (69) Yuliya SKOKOVA (0)   RUS RUS 3:03.450.5 - 18.31 - (18.3)
1.0 - 32.38 - (14.0)
1.5 - 46.55 - (14.1)
2.0 - 1:00.93 - (14.3)
2.5 - 1:15.59 - (14.6)
3.0 - 1:30.49 - (14.9)
3.5 - 1:45.43 - (14.9)
4.0 - 2:00.54 - (15.1)
4.5 - 2:15.74 - (15.2)
5.0 - 2:31.17 - (15.4)
5.5 - 2:46.96 - (15.7)
6.0 - 3:03.45 - (16.3)
3.75
5 7 Germany (20) Stephanie BECKERT (27) Claudia PECHSTEIN (26) Isabell OST (0)   GER GER 3:03.630.5 - 19.75 - (19.7)
1.0 - 34.50 - (14.7)
1.5 - 48.86 - (14.3)
2.0 - 1:03.55 - (14.6)
2.5 - 1:18.15 - (14.6)
3.0 - 1:33.18 - (15.0)
3.5 - 1:48.45 - (15.2)
4.0 - 2:03.62 - (15.1)
4.5 - 2:18.74 - (15.1)
5.0 - 2:33.87 - (15.1)
5.5 - 2:48.57 - (14.7)
6.0 - 3:03.63 - (15.0)
3.93
6 3 Korea (41) Ju-Youn LEE (43) Seon-Yeong NOH (39) Bo-Reum KIM (0)   KOR KOR 3:03.860.5 - 18.85 - (18.8)
1.0 - 33.20 - (14.3)
1.5 - 47.12 - (13.9)
2.0 - 1:01.60 - (14.4)
2.5 - 1:15.96 - (14.3)
3.0 - 1:30.70 - (14.7)
3.5 - 1:45.57 - (14.8)
4.0 - 2:00.90 - (15.3)
4.5 - 2:15.88 - (14.9)
5.0 - 2:31.52 - (15.6)
5.5 - 2:47.36 - (15.8)
6.0 - 3:03.86 - (16.2)
4.16
7 5 Japan (30) Masako HOZUMI (36) Miho TAKAGI (33) Ayaka KIKUCHI (0)   JPN JPN 3:04.100.5 - 19.52 - (19.5)
1.0 - 34.25 - (14.7)
1.5 - 48.22 - (13.9)
2.0 - 1:02.67 - (14.4)
2.5 - 1:16.83 - (14.1)
3.0 - 1:31.54 - (14.7)
3.5 - 1:46.21 - (14.6)
4.0 - 2:01.46 - (15.2)
4.5 - 2:16.22 - (14.7)
5.0 - 2:31.79 - (15.5)
5.5 - 2:47.58 - (15.7)
6.0 - 3:04.10 - (16.3)
4.40
8 8 USA (74) Jilleanne ROOKARD (73) Heather RICHARDSON (72) Maria LAMB (0)   USA USA 3:07.220.5 - 19.22 - (19.2)
1.0 - 33.44 - (14.2)
1.5 - 47.59 - (14.1)
2.0 - 1:02.48 - (14.8)
2.5 - 1:17.62 - (15.1)
3.0 - 1:33.02 - (15.4)
3.5 - 1:48.27 - (15.2)
4.0 - 2:03.72 - (15.4)
4.5 - 2:19.45 - (15.7)
5.0 - 2:34.99 - (15.5)
5.5 - 2:51.17 - (16.1)
6.0 - 3:07.22 - (16.0)
7.52